Location: Bijele Vode
(45.2833°N, 16.2000°E)
Time: 14:42:23
(UTC+00:00)

Cosmos 372 Rocket - Pass Details

Date: 18 September 2020
Orbit: 739 x 767 km, 74.1° (Epoch: 31 October)

Event Time Altitude Azimuth Distance (km) Brightness Sun altitude
Rises 18:43:01 0° 204° (SSW) 3,222 7.3 -18.5°
Reaches altitude 10° 18:45:23 10° 207° (SSW) 2,299 6.5 -18.9°
Maximum altitude 18:50:36 74° 292° (WNW) 798 4.2 -19.7°
Drops below altitude 10° 18:55:50 10° 18° (NNE) 2,305 6.5 -20.6°
Sets 18:58:14 0° 20° (NNE) 3,231 7.3 -21.0°
